Retour au catalogue

STARLINK-36310

ActifCommunicationsVLEO
NORAD 68244·PAYLOAD·🇺🇸 United States

Lancé Mar 17, 2026 depuis Vandenberg Space Force Base

Loading…

Prochains Passages (prochaines 24 heures)

TLE

FraisSource: CelesTrak SupGP

Époque: Sep 14, 2026, 23:31 UTC

1 68244C 26054N   26257.98034722 -.00034001  00000+0 -10046-2 0  2577
2 68244  53.1577 127.6007 0001347  84.5819 301.7390 15.34405845    10

Suivez STARLINK-36310 en temps réel avec AllMySat

Download on the App Store